Weather in Budagovo

Russia / Irkutsk Oblast     54°37′36″N   100°07′49″E
temp.,
°C
wind,
m/s
gust,
m/s
humid.,
%
clouds,
%
prec.,
mm/h
press.,
hPa
HPBL,
m
28 november, sun
sun2823:00−17s129899 0.0 104027
02:00−15s2592100 0.0 103886
05:00−14s268098 0.0 1036137
08:00−13s2777100 0.0 1033184
11:00−11sse2576100 0.1 1030130
14:00−8ssw2472100 0.1 1028179
17:00−7sw31172100 0.0 1027348
20:00−6nw3993100 1.1 1028846
29 november, mon
mon2923:00−7wnw41288100 0.6 10291142
02:00−7w41292100 0.7 1030886
05:00−5w51379100 0.3 10291273
08:00−6w51488100 0.5 10301386
11:00−5wnw61476100 0.1 10311353
14:00−5wnw51475100 0.1 10311510
17:00−6wnw51481100 0.0 10321219
20:00−6wnw41384100 0.1 10321024
30 november, tue
tue3023:00−7w2795100 0.2 1032353
02:00−8sw1298100 0.5 103154
05:00−7sw2688100 0.1 1030176
08:00−6sw3895100 0.5 1029255
11:00−5sw3893100 0.3 1028241
14:00−2sw2776100 0.3 1025280
17:00−5sw2687100 0.0 102598
20:00−6sw278258 0.0 1024104
1 december, wed
wed123:00−4wsw3117699 0.0 1024238
02:00−4w31569100 0.0 1023465
05:00−3w51561100 0.0 1022703
08:00−2w61657100 0.0 1022841
11:00−2wnw72053100 0.0 10231407
14:00−2wnw62057100 0.0 10231556
17:00−4wnw61863100 0.0 10261225
20:00−5wnw51570100 0.0 10271019
2 december, thu
thu223:00−7wnw2880100 0.0 1028223
02:00−9sw1193100 0.0 102710
05:00−8ssw2689100 0.0 1024103
08:00−8sw2782100 0.0 1023103
11:00−5wsw2871100 0.0 1023193
14:000w41457100 0.0 1020927
17:00−4w2376100 0.0 102229
20:00−6wsw2287100 0.0 102322